Temp
10 9 10 11 12 13 15 15 16 16 16 15 15 16 16 15 13 13 12 14 13 13 13 12 12 12 12 12 11 11 11 11 11 12 12 12 11 11 11 10 10 10 10 10
9 10 11 11 12 12 13 14 15 16 15 14 16 16 16 16 14 13 12 13 14 13 13 13 13 12 12 12 12 12 12 12 12 12 12 11 11 11 11 10 10 10 10 10
11 12 11 11 11 11 12 14 15 15 15 15 15 16 16 15 14 13 13 13 11 13 13 14 13 13 13 13 13 13 12 12 12 12 12 12 11 11 12 12 11 11 11 10
11 12 11 11 11 12 13 13 13 14 14 16 16 18 17 16 15 14 14 13 14 14 13 13 14 14 13 13 13 13 13 13 13 12 12 12 12 12 11 11 11 11 11 10
11 11 11 11 11 12 13 14 13 13 14 15 16 16 17 17 16 15 14 14 14 15 14 14 14 14 14 14 13 13 13 13 13 13 13 12 12 12 12 12 12 12 12 11
11 11 11 12 12 12 12 13 13 13 14 16 16 16 17 17 16 16 15 14 15 14 14 14 14 14 14 14 14 13 13 13 13 13 13 13 13 12 12 12 12 12 12 11
11 11 11 11 11 11 11 12 15 15 16 17 17 16 17 17 17 16 16 16 15 16 16 15 14 14 13 14 14 14 14 14 14 13 13 13 13 13 13 12 12 12 12 12
11 12 11 12 12 12 12 13 16 16 18 19 16 17 17 17 17 16 16 17 15 15 16 16 15 15 14 14 14 14 14 14 14 14 14 14 13 13 13 12 12 12 12 12
13 13 13 12 11 13 12 12 15 17 17 17 19 17 17 16 16 16 16 16 16 15 17 17 16 15 15 14 14 15 14 14 14 14 14 13 13 13 13 13 12 12 12 12
12 14 13 12 11 12 14 13 14 15 17 17 18 18 18 17 16 16 16 17 17 16 16 17 17 16 16 15 15 15 15 14 14 14 14 14 14 13 13 13 13 13 13 12
10 12 14 13 12 13 12 13 13 15 16 18 18 19 18 17 16 16 17 17 17 17 17 18 18 18 17 16 16 15 15 15 14 14 14 13 14 14 13 13 13 13 13 13
8 10 13 13 13 13 13 13 13 15 15 15 17 19 17 16 16 16 17 17 17 17 17 17 17 17 17 17 17 17 16 15 15 15 14 14 14 13 13 13 13 13 13 13
5 9 12 13 13 13 13 13 14 14 15 16 16 17 16 16 15 15 16 16 16 16 16 16 16 18 18 18 18 17 17 16 16 15 15 14 14 14 14 14 13 13 13 13
5 8 11 14 14 13 12 14 13 14 14 16 16 16 16 16 16 15 16 15 15 16 17 18 18 18 18 18 18 18 17 17 17 16 15 15 15 14 14 14 14 13 13 13
2 7 6 9 8 8 12 13 13 14 14 15 16 16 15 15 16 15 15 15 16 16 17 17 17 18 18 18 19 19 18 17 17 17 16 16 15 15 14 14 14 14 14 14
1 5 4 6 7 7 8 9 10 12 14 14 14 15 15 15 14 15 14 14 15 15 15 17 17 18 18 18 18 19 19 18 18 17 17 16 16 15 15 15 15 14 14 14
-0 3 4 7 8 8 8 9 10 10 11 12 12 13 13 13 13 13 16 16 17 17 17 16 17 17 18 18 18 19 18 18 18 18 17 17 16 16 16 16 15 15 15 15
-1 1 3 6 7 8 10 11 11 10 10 10 11 11 12 12 12 12 12 15 16 17 17 16 16 17 17 17 18 18 18 18 18 18 18 17 17 16 16 16 16 16 16 16
-1 -0 3 4 6 9 10 9 9 9 10 11 11 11 11 12 12 12 12 14 15 16 17 17 16 16 16 17 18 18 18 18 18 18 18 17 17 17 17 17 17 17 16 16
-1 -2 1 4 5 8 9 8 7 8 8 9 9 9 10 11 12 13 13 13 14 16 16 17 17 17 17 17 18 18 18 18 18 18 18 17 17 17 17 17 17 17 16 16
-1 -1 -0 2 3 6 7 6 5 7 8 6 7 8 10 11 11 12 13 15 15 15 16 16 16 17 17 17 17 18 18 18 18 18 18 17 17 17 17 17 17 17 17 17
-0 -1 0 0 2 4 4 4 5 5 5 7 8 9 10 11 12 12 13 13 15 16 16 16 16 17 17 17 17 18 18 19 18 18 18 18 18 18 18 17 17 17 17 17
-1 -0 1 0 2 2 2 3 3 3 6 6 8 9 10 11 12 13 13 14 14 15 16 16 16 17 17 17 17 17 18 18 19 18 18 18 18 18 18 18 17 17 18 17
-2 -2 -2 -1 -0 -0 -0 1 1 1 5 7 8 10 10 11 12 13 14 14 15 15 16 16 16 16 17 17 17 17 17 18 18 18 19 18 18 18 18 18 17 17 17 17
-2 -2 -2 -2 -2 -1 -1 -0 3 1 2 6 8 8 9 10 11 12 14 15 15 15 16 16 16 16 17 17 17 17 17 18 18 18 18 18 18 18 18 17 17 17 17 17
-4 -4 -3 -2 -2 -1 -1 -1 -0 0 2 4 6 8 9 10 11 13 13 14 15 15 16 16 16 16 16 17 17 17 17 17 17 17 17 17 17 17 17 17 17 17 16 16
Height
3115 3120 3114 3124 3132 3138 3141 3144 3145 3148 3150 3153 3154 3156 3158 3159 3159 3162 3161 3164 3167 3170 3172 3174 3177 3180 3183 3187 3191 3194 3198 3202 3205 3209 3211 3214 3216 3218 3219 3220 3221 3221 3222 3223
3114 3104 3118 3126 3130 3133 3137 3140 3142 3145 3147 3149 3150 3151 3153 3155 3154 3157 3159 3159 3163 3167 3168 3171 3173 3177 3180 3184 3188 3192 3195 3199 3203 3207 3210 3212 3214 3216 3217 3218 3219 3221 3221 3222
3102 3108 3115 3119 3123 3126 3129 3132 3138 3142 3144 3145 3147 3146 3148 3150 3151 3153 3155 3157 3160 3163 3165 3168 3170 3174 3178 3181 3185 3189 3193 3197 3200 3204 3207 3209 3211 3212 3214 3216 3218 3219 3220 3220
3101 3107 3107 3111 3114 3121 3123 3129 3135 3139 3141 3139 3141 3137 3138 3143 3145 3147 3150 3152 3155 3158 3161 3164 3167 3170 3173 3178 3183 3187 3190 3193 3197 3200 3203 3206 3209 3211 3213 3214 3215 3216 3217 3218
3090 3096 3102 3104 3106 3115 3119 3128 3131 3135 3137 3139 3135 3137 3131 3135 3139 3141 3144 3146 3150 3153 3156 3160 3164 3167 3172 3176 3179 3184 3187 3190 3193 3197 3200 3203 3206 3208 3210 3212 3213 3214 3215 3216
3089 3093 3097 3098 3106 3110 3117 3123 3127 3130 3132 3126 3125 3129 3123 3127 3131 3136 3140 3142 3144 3148 3152 3156 3160 3164 3167 3171 3175 3179 3183 3187 3190 3194 3197 3200 3203 3205 3207 3209 3210 3211 3213 3213
3083 3085 3089 3094 3100 3104 3110 3116 3117 3120 3116 3105 3118 3120 3116 3121 3125 3128 3133 3137 3139 3143 3147 3150 3154 3158 3162 3165 3170 3174 3179 3183 3186 3190 3193 3197 3200 3202 3204 3206 3208 3209 3210 3210
3073 3074 3076 3081 3087 3093 3097 3102 3098 3099 3097 3104 3112 3103 3106 3116 3121 3122 3126 3133 3135 3138 3141 3146 3149 3154 3158 3161 3165 3168 3172 3178 3182 3186 3190 3193 3196 3197 3200 3202 3205 3206 3207 3207
3062 3065 3069 3074 3080 3087 3089 3091 3099 3096 3097 3098 3095 3100 3107 3108 3110 3114 3120 3124 3130 3133 3137 3140 3146 3149 3153 3157 3159 3163 3167 3173 3177 3180 3185 3187 3191 3193 3196 3198 3201 3202 3203 3204
3055 3060 3062 3070 3076 3079 3081 3091 3094 3092 3091 3091 3090 3093 3094 3097 3101 3106 3112 3119 3124 3129 3132 3137 3141 3144 3147 3151 3155 3158 3162 3167 3171 3175 3178 3181 3184 3188 3191 3193 3194 3196 3198 3200
3052 3054 3055 3062 3057 3064 3075 3078 3082 3088 3087 3084 3087 3084 3088 3091 3096 3099 3105 3112 3118 3124 3128 3132 3136 3139 3142 3145 3148 3152 3156 3160 3164 3168 3172 3174 3177 3180 3184 3186 3188 3190 3193 3195
3047 3048 3047 3049 3057 3063 3067 3070 3073 3075 3080 3083 3082 3081 3083 3087 3090 3095 3101 3107 3113 3120 3125 3127 3131 3133 3136 3139 3142 3144 3148 3153 3157 3162 3166 3169 3172 3173 3175 3177 3181 3184 3186 3189
3038 3039 3044 3047 3053 3055 3055 3061 3067 3073 3074 3071 3077 3080 3081 3086 3087 3092 3097 3102 3106 3111 3116 3121 3125 3127 3131 3133 3136 3138 3142 3146 3151 3155 3159 3162 3165 3167 3168 3171 3175 3178 3180 3183
3031 3035 3034 3032 3040 3047 3050 3052 3059 3063 3064 3065 3068 3077 3081 3085 3088 3090 3092 3097 3100 3103 3107 3111 3115 3120 3124 3127 3129 3132 3135 3139 3143 3148 3151 3154 3157 3160 3163 3167 3170 3173 3175 3178
3028 3031 3034 3035 3035 3037 3040 3045 3050 3051 3058 3058 3067 3071 3078 3082 3086 3089 3091 3095 3097 3100 3104 3106 3110 3115 3119 3122 3124 3126 3129 3132 3136 3140 3144 3147 3153 3156 3159 3162 3165 3168 3169 3172
3027 3030 3031 3031 3034 3036 3038 3040 3042 3047 3052 3057 3062 3066 3075 3079 3081 3082 3086 3088 3092 3096 3099 3102 3105 3109 3113 3115 3117 3119 3121 3125 3127 3132 3137 3143 3146 3150 3153 3157 3159 3162 3164 3166
3027 3029 3031 3028 3032 3035 3032 3032 3038 3044 3048 3053 3053 3065 3070 3071 3074 3076 3078 3082 3087 3090 3093 3096 3099 3103 3106 3110 3111 3113 3114 3118 3121 3125 3131 3135 3139 3143 3147 3151 3153 3155 3157 3159
3025 3027 3029 3027 3030 3028 3022 3032 3033 3037 3043 3048 3053 3058 3062 3065 3068 3071 3073 3076 3080 3083 3087 3090 3093 3097 3100 3103 3106 3107 3108 3111 3115 3120 3124 3128 3131 3135 3140 3143 3145 3148 3150 3152
3021 3025 3026 3027 3026 3019 3021 3026 3030 3034 3038 3044 3048 3052 3055 3058 3061 3062 3067 3070 3073 3077 3081 3085 3088 3091 3092 3094 3099 3100 3102 3104 3108 3113 3118 3121 3123 3128 3131 3135 3138 3141 3143 3145
3019 3021 3025 3023 3022 3016 3022 3023 3028 3031 3035 3040 3040 3044 3047 3051 3052 3059 3063 3064 3065 3068 3071 3073 3078 3081 3082 3087 3088 3091 3095 3098 3102 3108 3112 3115 3117 3120 3124 3127 3129 3132 3134 3135
3015 3018 3018 3020 3018 3014 3017 3019 3022 3029 3035 3031 3032 3034 3037 3041 3043 3046 3053 3054 3057 3058 3062 3066 3069 3071 3076 3078 3081 3085 3089 3092 3099 3101 3104 3107 3110 3114 3117 3119 3120 3121 3123 3123
3010 3013 3013 3016 3014 3010 3014 3016 3022 3019 3018 3021 3024 3025 3027 3031 3034 3037 3040 3043 3047 3050 3054 3058 3060 3064 3068 3070 3073 3077 3082 3089 3089 3093 3096 3100 3103 3106 3108 3110 3111 3111 3112 3114
3008 3007 3006 3008 3003 3007 3008 3010 3009 3009 3011 3013 3016 3019 3021 3024 3028 3030 3031 3033 3036 3041 3046 3050 3053 3056 3060 3063 3066 3069 3075 3078 3081 3085 3089 3092 3095 3098 3099 3101 3102 3103 3104 3106
3002 3002 3000 3001 2997 2998 3000 3001 3002 3002 3005 3009 3010 3013 3016 3018 3021 3022 3023 3025 3028 3033 3039 3042 3045 3048 3052 3056 3059 3063 3066 3070 3073 3077 3080 3083 3086 3089 3091 3093 3094 3096 3098 3099
2996 2995 2993 2990 2990 2992 2991 2993 2997 2996 2993 2999 3002 3006 3009 3013 3016 3017 3018 3020 3023 3025 3030 3035 3038 3041 3045 3049 3053 3056 3059 3061 3064 3067 3071 3074 3078 3081 3083 3084 3086 3088 3089 3089
2986 2983 2982 2977 2983 2983 2984 2987 2987 2982 2986 2992 2996 3003 3008 3011 3013 3011 3010 3012 3015 3018 3021 3025 3029 3033 3036 3040 3045 3048 3051 3054 3058 3061 3063 3067 3070 3073 3075 3076 3078 3079 3079 3080
Wind_Speed
34 33 44 37 33 30 21 19 23 21 14 17 19 18 14 15 19 20 20 18 18 16 13 19 25 30 31 32 31 29 27 25 24 22 19 17 14 13 11 10 10 8 9 10
29 44 32 30 30 31 30 23 25 21 18 17 18 18 15 18 20 22 22 18 20 20 18 19 24 29 33 32 30 29 27 26 23 21 18 17 14 13 12 13 13 11 11 10
33 18 31 31 33 33 33 33 26 23 17 20 17 21 20 17 17 21 23 19 21 24 22 18 21 26 29 32 32 31 28 26 24 22 21 19 19 17 14 12 11 12 13 13
34 27 28 33 35 35 37 32 25 22 19 19 17 23 24 24 21 21 22 24 21 22 26 20 21 25 28 28 30 31 30 28 25 25 24 21 17 14 11 11 12 14 15 15
35 34 31 35 35 31 34 25 25 28 26 24 28 18 26 18 25 25 23 24 25 21 26 27 19 19 23 25 31 32 30 29 27 25 23 20 19 15 15 15 14 13 14 16
35 19 31 31 26 29 21 25 23 22 27 27 36 32 30 28 26 25 25 23 25 25 25 29 26 19 23 26 31 33 32 29 28 26 25 22 19 17 17 16 14 13 13 14
33 39 26 26 30 26 33 29 17 18 23 21 29 35 37 16 26 26 25 26 26 26 21 24 32 29 22 28 31 34 33 32 30 28 27 24 21 21 19 17 17 16 14 14
34 31 41 35 35 31 39 38 24 20 15 21 26 25 40 33 28 9 28 25 22 29 24 25 26 29 28 22 27 33 36 34 33 30 28 26 25 25 23 22 19 17 15 15
33 38 30 29 36 33 37 44 37 21 16 13 26 32 25 20 27 31 27 22 29 26 32 28 24 25 30 31 25 23 33 34 34 33 31 30 28 29 27 25 21 19 17 17
29 26 29 34 29 33 26 33 35 36 22 20 17 24 25 18 33 26 28 31 23 28 31 27 23 20 22 26 30 27 26 26 27 27 29 34 33 31 30 28 27 24 20 20
26 23 29 27 43 42 39 31 42 30 30 13 14 19 23 24 24 27 26 29 29 29 31 29 23 17 18 21 27 32 35 30 29 28 27 23 30 35 33 33 32 29 24 23
28 21 23 37 33 34 37 36 41 32 32 39 26 17 8 6 14 22 22 23 26 28 26 27 24 18 16 15 22 29 33 37 36 32 31 29 21 22 28 33 31 29 28 26
20 27 26 20 25 33 40 41 38 39 26 31 26 9 12 10 8 14 18 18 21 27 28 29 26 21 19 20 24 25 29 34 34 31 34 33 31 26 22 22 25 27 27 28
23 19 36 30 27 32 37 43 41 43 42 32 34 22 21 11 8 7 16 15 10 13 25 34 33 30 25 23 23 29 30 31 34 34 34 33 30 27 24 22 22 26 26 27
6 22 17 23 13 9 20 41 42 45 43 44 31 30 27 16 14 9 10 7 9 12 13 15 21 24 24 21 21 22 32 34 35 37 37 35 31 30 30 29 27 26 27 26
2 10 12 20 16 13 16 21 27 37 43 41 38 35 22 20 23 28 22 18 17 16 13 16 24 25 23 18 19 24 30 38 37 38 38 34 34 32 32 32 33 33 30 28
6 8 9 22 19 18 24 32 30 30 32 32 38 31 28 29 25 21 29 31 29 25 24 16 16 24 23 21 20 23 27 37 40 39 37 38 37 37 34 35 36 34 32 32
9 10 11 11 15 17 26 25 25 35 31 29 28 25 24 25 26 27 26 26 25 25 26 24 17 18 23 26 23 23 24 33 40 40 39 39 40 41 39 38 39 38 37 36
16 12 14 20 22 10 13 12 10 15 22 26 27 27 26 26 26 29 27 31 32 24 24 32 23 22 22 26 28 27 26 28 34 37 36 38 41 40 42 42 39 38 40 40
17 18 17 12 21 18 13 22 16 10 15 11 13 13 19 23 29 24 20 21 24 22 22 27 29 29 28 27 29 30 28 29 32 34 34 35 38 36 34 36 39 41 42 42
20 19 23 23 20 16 20 3 5 18 4 3 7 11 17 19 25 31 30 32 25 26 25 23 23 32 30 31 33 33 32 33 32 36 33 31 34 34 29 29 33 36 38 41
14 15 21 25 26 28 16 13 13 10 12 15 13 11 11 16 18 18 19 33 35 26 29 27 25 30 32 30 31 35 38 31 34 38 37 32 30 31 31 30 32 37 37 39
21 21 18 23 24 20 17 24 22 20 26 21 22 19 15 15 19 21 21 22 35 33 33 28 24 30 34 31 32 30 34 36 37 41 40 39 35 34 33 32 32 30 28 28
23 21 26 27 34 31 22 22 27 23 33 33 26 25 21 21 23 28 27 21 25 34 33 31 25 27 34 32 32 28 31 35 32 36 44 47 40 35 32 31 29 27 28 30
21 21 25 31 33 31 31 30 29 29 38 48 47 37 29 26 27 28 25 29 28 34 37 35 30 23 31 33 32 31 29 34 34 32 38 40 36 32 29 29 31 31 29 29
28 34 36 38 28 28 30 27 29 39 40 43 44 42 41 38 33 38 39 34 38 36 39 39 35 31 25 35 37 34 28 31 34 29 29 33 35 33 32 32 33 31 31 32
Wind_Direction
198 197 206 208 208 212 216 216 216 210 198 218 233 237 235 236 224 215 224 230 231 224 212 208 203 200 198 200 200 199 199 200 204 212 216 222 227 232 234 233 228 225 229 226
193 216 211 210 212 213 217 221 220 216 215 227 233 239 236 236 225 212 214 229 226 219 217 211 207 206 205 204 202 203 201 205 209 217 220 222 222 221 227 231 234 236 238 241
205 220 208 210 210 214 217 219 218 222 229 236 239 244 235 235 228 216 219 226 219 218 220 219 211 209 209 207 206 204 204 207 211 215 219 217 215 213 222 236 244 249 250 252
218 215 202 206 213 213 221 222 225 228 228 234 225 252 234 232 230 222 221 214 224 218 219 224 218 210 211 211 209 207 206 208 213 216 219 219 221 221 222 229 233 239 243 247
214 211 212 211 216 212 224 221 229 231 236 249 243 248 244 227 228 226 222 222 215 224 219 217 216 215 215 212 209 208 211 211 215 218 217 220 223 221 223 228 235 243 253 252
219 226 216 223 220 216 220 215 225 231 233 241 238 239 250 236 231 230 228 225 216 216 219 221 222 218 213 213 213 213 214 214 217 221 222 219 220 224 229 233 239 246 251 252
219 221 225 216 215 214 208 199 201 217 225 237 235 235 235 239 236 235 224 225 217 216 222 230 218 220 216 216 216 218 218 219 222 224 227 227 225 226 230 232 235 239 245 246
209 220 215 212 211 206 203 201 205 212 219 228 225 239 240 239 229 222 224 221 213 213 214 218 224 222 222 219 219 219 221 223 227 230 234 236 233 230 231 230 234 237 241 240
206 223 208 209 203 199 205 212 211 241 226 262 231 230 244 233 231 229 226 216 216 218 211 215 221 223 226 224 222 230 227 223 229 236 240 242 242 240 239 239 237 236 236 237
225 222 213 208 203 209 209 208 212 223 240 242 234 237 234 233 229 222 220 218 212 209 214 212 222 223 222 225 228 227 222 223 229 238 243 245 246 244 242 240 241 239 229 230
206 213 206 197 206 202 201 210 215 219 221 227 237 244 245 239 231 219 220 217 213 210 213 219 219 217 224 224 221 226 231 222 222 232 238 241 240 241 241 243 248 240 229 224
204 211 211 209 212 208 210 207 204 211 213 234 257 243 188 212 221 219 216 219 210 209 217 219 229 230 231 228 230 226 227 226 224 227 232 236 232 229 235 239 238 230 228 226
199 213 210 208 209 211 212 211 211 213 222 219 220 228 226 206 167 192 199 207 213 215 220 222 230 229 233 243 232 230 227 228 225 225 226 228 230 233 232 232 233 233 231 228
201 209 215 214 206 208 212 213 213 214 223 228 224 229 226 220 222 221 202 205 217 221 224 226 228 232 239 238 238 228 224 227 226 227 223 226 226 228 234 239 240 239 237 237
187 212 224 225 220 205 213 214 213 218 223 227 231 228 226 221 227 212 212 222 229 222 221 222 211 218 220 226 237 243 227 221 226 228 228 227 227 228 231 234 239 238 236 237
243 205 224 230 227 226 226 216 214 222 226 233 236 239 232 245 248 247 246 256 250 246 255 229 214 212 218 236 241 246 234 222 221 227 231 228 226 229 233 234 240 241 241 243
261 223 236 227 224 241 246 224 224 226 223 224 233 238 238 242 247 251 230 241 237 240 252 229 212 227 228 232 236 240 234 227 220 224 227 228 227 231 232 236 239 241 243 246
234 240 234 232 210 237 242 230 238 232 233 232 239 239 239 246 250 254 259 261 247 241 229 226 236 231 221 229 232 235 238 226 225 225 227 229 230 231 234 234 241 241 243 248
220 217 234 228 226 252 212 209 223 223 235 234 242 245 249 256 259 260 265 267 270 263 232 228 230 243 232 225 228 234 232 226 226 221 223 226 229 231 235 241 245 244 241 244
210 211 219 220 235 234 246 247 238 235 249 233 239 245 246 248 254 260 260 261 254 255 242 226 233 233 228 220 227 233 233 232 224 219 227 229 228 233 237 237 238 242 243 244
199 213 221 227 243 240 226 238 197 206 157 136 202 228 230 236 250 251 239 250 249 242 218 219 224 222 225 230 229 231 234 234 228 222 225 226 227 228 232 238 241 244 244 244
205 211 221 229 238 239 227 233 212 223 210 219 224 235 232 227 243 246 251 240 231 230 219 226 239 226 227 233 237 236 233 237 231 221 227 230 228 233 244 250 257 251 247 247
236 235 234 226 234 243 230 230 241 250 233 215 226 232 251 246 251 251 262 262 235 219 217 225 227 227 228 235 234 237 228 232 234 229 231 236 242 251 252 256 262 258 256 261
244 245 250 251 241 248 258 243 244 258 228 231 219 222 245 252 255 257 263 264 220 222 221 218 221 230 223 230 237 239 240 231 238 236 236 239 242 247 251 256 248 250 260 263
246 245 250 255 254 251 247 242 231 256 238 225 233 238 245 266 264 266 251 241 237 228 222 219 225 227 227 225 234 233 243 238 239 246 247 231 236 244 248 246 250 261 264 267
258 255 251 258 255 253 256 248 243 251 244 232 231 234 241 246 253 256 250 235 230 231 227 224 228 231 239 227 227 234 242 240 237 241 236 232 236 243 246 254 260 262 267 271